This demonstration page uses our WeatherBlox Daily Observations layout. Learn more.

Left ArrowRight Arrow

Hourly Observations for October 3, 2022

Temp ( °F °C ) Dew Point ( °F °C ) Humidity (%) Winds ( mph kmh ) Pressure ( in mb ) Visibility ( mi km ) Precip ( " mm )
12:53 am 00:53 Cloudy 49 9.4 48 8.9 97 97 S 3 6 30.11 1020 10 16 0.00 0.00
1:53 am 01:53 Cloudy 51 10.6 49 9.4 92 92 Calm 30.11 1020 10 16 0.00 0.00
2:53 am 02:53 Cloudy 50 10 49 9.4 96 96 ESE 3 6 30.12 1020 10 16 0.00 0.00
3:53 am 03:53 Cloudy 51 10.6 49 9.4 92 92 Calm 30.12 1020 10 16 0.00 0.00
4:53 am 04:53 Clear 49 9.4 49 9.4 100 100 W 3 6 30.13 1020 10 16 0.00 0.00
5:17 am 05:17 Mostly Clear with Mist and Fog 45 7.2 45 7.2 100 100 SSW 5 7 30.16 1021 1 2 0.00 0.00
5:27 am 05:27 Clear with Mist and Fog 46 7.8 45 7.2 96 96 SSE 3 6 30.15 1021 2 2 0.00 0.00
5:33 am 05:33 Clear with Mist and Fog 45 7.2 45 7.2 100 100 Calm 30.16 1021 4 6 0.00 0.00
5:53 am 05:53 Mostly Clear 45 7.2 44 6.7 97 97 Calm 30.15 1021 10 16 0.00 0.00
6:53 am 06:53 Mostly Cloudy 43 6.1 42 5.6 97 97 SE 5 7 30.17 1022 9 14 0.00 0.00
7:04 am 07:04 Partly Cloudy with Mist and Fog 43 6.1 43 6.1 100 100 ESE 3 6 30.19 1022 1 1 0.00 0.00
7:18 am 07:18 Mostly Cloudy with Mist and Fog 42 5.6 42 5.6 100 100 SE 3 6 30.20 1023 1 1 0.00 0.00
7:22 am 07:22 Mostly Cloudy with Fog 43 6.1 42 5.6 97 97 Calm 30.20 1023 0 0 0.00 0.00
7:53 am 07:53 Partly Cloudy with Fog 44 6.7 44 6.7 100 100 Calm 30.19 1022 0 0 0.00 0.00
8:00 am 08:00 Partly Cloudy with Fog 44 6.7 44 6.7 100 100 S 3 6 30.20 1023 1 1 0.00 0.00
8:03 am 08:03 Partly Cloudy with Mist and Fog 45 7.2 44 6.7 97 97 S 3 6 30.20 1023 4 6 0.00 0.00
8:53 am 08:53 Sunny 48 8.9 47 8.3 96 96 Calm 30.20 1023 10 16 0.00 0.00
9:53 am 09:53 Sunny 56 13.3 51 10.6 84 84 WSW 6 9 30.21 1023 10 16 0.00 0.00
10:53 am 10:53 Sunny 60 15.6 51 10.6 72 72 VRB 5 7 30.20 1023 10 16 0.00 0.00
11:53 am 11:53 Sunny 63 17.2 49 9.4 60 60 WNW 5 7 30.19 1022 10 16 0.00 0.00
12:53 pm 12:53 Mostly Cloudy 64 17.8 44 6.7 48 48 Calm 30.18 1022 10 16 0.00 0.00
1:53 pm 13:53 Mostly Cloudy 67 19.4 46 7.8 47 47 Calm 30.17 1022 10 16 0.00 0.00
2:53 pm 14:53 Mostly Cloudy 69 20.6 46 7.8 44 44 WSW 7 11 30.15 1021 10 16 0.00 0.00
3:53 pm 15:53 Cloudy 68 20 45 7.2 43 43 N 5 7 30.15 1021 10 16 0.00 0.00
4:53 pm 16:53 Mostly Cloudy 69 20.6 45 7.2 42 42 NE 3 6 30.14 1021 10 16 0.00 0.00
5:53 pm 17:53 Sunny 69 20.6 45 7.2 42 42 Calm 30.15 1021 10 16 0.00 0.00
6:53 pm 18:53 Sunny 62 16.7 46 7.8 56 56 SSE 6 9 30.15 1021 10 16 0.00 0.00
7:53 pm 19:53 Clear 55 12.8 46 7.8 72 72 S 9 15 30.16 1022 10 16 0.00 0.00
8:53 pm 20:53 Clear 53 11.7 45 7.2 74 74 SSE 7 11 30.17 1022 10 16 0.00 0.00
9:53 pm 21:53 Clear 52 11.1 45 7.2 77 77 Calm 30.16 1021 10 16 0.00 0.00
10:53 pm 22:53 Clear 48 8.9 44 6.7 86 86 W 3 6 30.16 1021 10 16 0.00 0.00
11:53 pm 23:53 Clear 47 8.3 43 6.1 86 86 SW 6 9 30.15 1021 10 16 0.00 0.00

Powered by AerisWeather